Regional Weather Roundup
Issued by NWS

Home | Current Version | Previous Version | Text Only | Print | Product List | Glossary On
Versions: 1 2 3 4 5 6 7 8 9 10 11 12 13 14 15 16 17 18 19 20 21 22 23 24 25 26 27
000
ASUS44 KLIX 292213
RWRLA
LOUISIANA WEATHER ROUNDUP
NATIONAL WEATHER SERVICE NEW ORLEANS LA
500 PM CDT WED MAR 29 2017

NOTE: "FAIR" INDICATES FEW OR NO CLOUDS BELOW 12,000 FEET WITH NO
      SIGNIFICANT WEATHER AND/OR OBSTRUCTIONS TO VISIBILITY.
      SKY/WX - SKY CONDITION AND SIGNIFICANT WEATHER.
      TMP - AIR TEMPERATURE.    DP   - DEWPOINT TEMPERATURE.
      RH  - RELATIVE HUMIDITY.  PRES - PRESSURE.
      HX  - HEAT INDEX.         WCI  - WIND CHILL INDEX.

*  THESE STATIONS ARE NOT NWS OR FAA STATIONS AND ARE NOT UNDER
   NWS QUALITY CONTROL.

LAZ040-048-061>063-065-066-069-292300-
SOUTHEAST LOUISIANA

CITY           SKY/WX    TMP DP  RH WIND       PRES   REMARKS
N.O. INTL ARPT PTSUNNY   80  66  62 SE17G25   29.89F
N.O. LAKEFRONT PTSUNNY   81  67  62 SE16      29.90F
N.O. DOWNTOWN*   N/A     81  67  62 S13       29.91F
RESERVE*       NOT AVBL
SLIDELL        CLOUDY    78  67  68 SE12G20   29.90F
BATON ROUGE    CLOUDY    82  64  54 S16G23    29.86S
BOOTHVILLE     MOSUNNY   77  70  79 SE15      29.91F
BELLE CHASSE   PTSUNNY   81  69  67 SE13      29.91S
BOGALUSA*      NOT AVBL
GALLIANO*      CLOUDY    77  68  74 SE7       29.90F
NEW ROADS*     NOT AVBL
GONZALES*      NOT AVBL
HAMMOND*       MOSUNNY   81  63  54 SE15G21   29.88S
HOUMA*         PTSUNNY   77  70  78 SE13      29.89F
PORT FOURCHON* PTCLDY    77  72  83 SE13G20   29.89F

$$

LAZ041-044-053-054-292300-
SOUTHWEST LOUISIANA

CITY           SKY/WX    TMP DP  RH WIND       PRES   REMARKS
LAKE CHARLES   CLOUDY    76  68  76 SE24G32   29.78S
LAFAYETTE      PTSUNNY   80  68  66 S15G22    29.84S
PATTERSON      PTSUNNY   77  69  76 SE14G21   29.87F
SALT POINT       N/A     75  69  81 SE10G21   29.85F
NEW IBERIA     LGT RAIN  78  67  68 S20G29    29.84F
CHENAULT AIRPK PTSUNNY   75  68  78 SE22G28   29.79F

$$

LAZ027-028-292300-
CENTRAL LOUISIANA

CITY           SKY/WX    TMP DP  RH WIND       PRES   REMARKS
FORT POLK      TSTM      74  66  76 SE8       29.78S
ALEXANDRIA INT LGT RAIN  77  66  68 SE13      29.76F
ALEXANDRIA     PTSUNNY   79  66  64 SE7       29.82R

$$

LAZ001-002-292300-
NORTHWEST LOUISIANA

CITY           SKY/WX    TMP DP  RH WIND       PRES   REMARKS
SHREVEPORT     CLOUDY    75  64  68 S6        29.75R
BARKSDALE AFB  CLOUDY    75  63  66 S10       29.75R
DTN SHREVEPORT PTSUNNY   76  63  64 S10       29.76R

$$

LAZ014-016-292300-
NORTHEAST LOUISIANA

CITY           SKY/WX    TMP DP  RH WIND       PRES   REMARKS
MONROE         CLOUDY    79  63  57 S14G23    29.78F
TALLULAH       CLOUDY    81  62  52 S14       29.82F

$$





USA.gov is the U.S. government's official web portal to all federal, state and local government web resources and services.